Starlink 5330

operational
NORAD ID: 55282 Int'l Des: 2023-010 Owner: SPXS Country: US Constellation: starlink
LEOCIRCULAR

关于 Starlink 5330

正在加载描述...

实时位置

正在加载3D地球...

即将过境

高度历史

Altitude vs Time

uPlot chart will show altitude changes over time

两行轨道根数

1 55282U 23010P 26036.60178094 -.00007448 00000-0 -61742-3 0 9998
2 55282 70.0028 125.1941 0003008 239.2818 120.8046 14.98310539167972
Epoch: Feb 5, 2026 • Age: 15 hours

当前状态

高度 583.3 km
速度 7.57 km/s
星下点 61.35°N, 45.41°E
发射日期 Jan 19, 2023
运行时间 3 years
类型 internet

技术详情

分类 Payload
质量 305.00 kg
干质量 290.00 kg
总质量 305.00 kg
长度 0.20 m
直径 2.80 m
跨度 9.00 m
形状 Box + pan
制造商 SPXS
平台类型 Starlink
阶段状态 In Orbit
所有者/国家 SPXS/US

大型星座

Loading constellations...